EW4931 Weather Reports


time (UTC)temp
C
wind
direction
speed
KPH
gust
KPH
rain 1hr
cm
rain 24hr
cm
rain mn
cm
humidity
%
barometer
mb
20260831170305 17 265 1.6 8.0 0.00 0.00 0.00 77 1006.5
20260831165804 17 257 1.6 3.2 0.00 0.00 0.00 77 1006.4
20260831165305 17 244 1.6 3.2 0.00 0.00 0.00 77 1006.4
20260831164805 17 247 1.6 8.0 0.00 0.00 0.00 76 1006.4
20260831164304 18 281 3.2 8.0 0.00 0.00 0.00 76 1006.3
20260831164027 18 264 3.2 6.4 0.00 0.00 0.00 75 1006.4
20260831163305 18 243 1.6 8.0 0.00 0.00 0.00 74 1006.4
20260831162805 18 252 3.2 8.0 0.00 0.00 0.00 73 1006.3
20260831162306 18 226 1.6 8.0 0.00 0.00 0.00 73 1006.4
20260831161804 18 265 0.0 8.0 0.00 0.00 0.00 73 1006.4
20260831161305 18 290 3.2 4.8 0.00 0.00 0.00 72 1006.3
20260831160805 18 254 1.6 8.0 0.00 0.00 0.00 72 1006.4
20260831160304 18 230 3.2 8.0 0.00 0.00 0.00 72 1006.4
20260831155805 18 257 3.2 6.4 0.00 0.00 0.00 72 1006.4
20260831155306 18 285 1.6 4.8 0.00 0.00 0.00 73 1006.4
20260831154804 18 279 0.0 6.4 0.00 0.00 0.00 73 1006.5
20260831154305 18 279 1.6 6.4 0.00 0.00 0.00 72 1006.4
20260831154249 18 289 1.6 6.4 0.00 0.00 0.00 73 1006.2
20260831153758 18 326 3.2 14.5 0.00 0.00 0.00 72 1006.4
20260831153023 18 269 6.4 14.5 0.00 0.00 0.00 71 1006.4
20260831152306 18 306 4.8 9.7 0.00 0.00 0.00 71 1006.4
20260831151806 18 306 1.6 14.5 0.00 0.00 0.00 72 1006.4
20260831151305 18 272 8.0 14.5 0.00 0.00 0.00 70 1006.5
20260831150805 18 298 4.8 11.3 0.00 0.00 0.00 72 1006.5
20260831150305 18 261 3.2 9.7 0.00 0.00 0.00 71 1006.6
20260831145805 18 243 1.6 11.3 0.00 0.00 0.00 71 1006.5
20260831145306 18 312 3.2 11.3 0.00 0.00 0.00 70 1006.4
20260831144805 18 283 4.8 14.5 0.00 0.00 0.00 69 1006.4
20260831144523 19 286 6.4 14.5 0.00 0.00 0.00 70 1006.3
20260831143805 18 323 4.8 9.7 0.00 0.00 0.00 72 1006.2
20260831143304 18 310 3.2 11.3 0.00 0.00 0.00 72 1006.1
20260831142805 18 275 6.4 11.3 0.00 0.00 0.00 71 1006.1
20260831142306 18 290 6.4 17.7 0.00 0.00 0.00 71 1006.1
20260831141805 18 245 6.4 17.7 0.00 0.00 0.00 71 1006.1
20260831141304 18 245 6.4 19.3 0.00 0.00 0.00 73 1006.1
20260831140804 18 300 11.3 19.3 0.00 0.00 0.00 73 1006.1
20260831140304 18 285 6.4 17.7 0.00 0.00 0.00 73 1006.1
20260831135805 18 226 4.8 16.1 0.00 0.00 0.00 73 1006.2
20260831135537 18 266 3.2 16.1 0.00 0.00 0.00 74 1006.1
20260831134805 18 288 9.7 16.1 0.00 0.00 0.00 74 1006.1
20260831134305 18 313 8.0 17.7 0.00 0.00 0.00 74 1006.2
20260831133805 18 265 4.8 20.9 0.00 0.00 0.00 75 1006.1
20260831133303 18 276 8.0 20.9 0.00 0.00 0.00 74 1006.2
20260831133034 18 269 9.7 25.7 0.00 0.00 0.00 74 1006.1
20260831132524 18 266 6.4 25.7 0.00 0.00 0.00 74 1006.2
20260831131804 18 283 8.0 22.5 0.00 0.00 0.00 75 1006.1
20260831131304 18 275 6.4 22.5 0.00 0.00 0.00 75 1006.1
20260831130804 18 274 11.3 27.4 0.00 0.00 0.00 75 1006.1
20260831130304 18 316 12.9 27.4 0.00 0.00 0.00 74 1006.0
20260831125806 18 268 6.4 19.3 0.00 0.00 0.00 75 1006.0
20260831125306 18 281 6.4 19.3 0.00 0.00 0.00 75 1006.0
20260831124805 19 258 8.0 19.3 0.00 0.00 0.00 74 1006.0
20260831124305 19 300 6.4 19.3 0.00 0.00 0.00 74 1006.0
20260831123805 19 278 9.7 19.3 0.00 0.00 0.00 74 1006.0
20260831123306 19 268 9.7 19.3 0.00 0.00 0.00 74 1005.8
20260831122805 20 279 11.3 20.9 0.00 0.00 0.00 73 1005.8
20260831122306 19 255 11.3 20.9 0.00 0.00 0.00 73 1005.8
20260831122008 19 241 6.4 14.5 0.00 0.00 0.00 75 1005.7
20260831121231 19 269 3.2 16.1 0.00 0.00 0.00 75 1005.7
20260831120738 19 282 9.7 16.1 0.00 0.00 0.00 75 1005.7
20260831120231 20 299 6.4 14.5 0.00 0.00 0.00 75 1005.6
20260831115731 20 292 6.4 11.3 0.00 0.00 0.00 75 1005.6
20260831115231 20 269 8.0 11.3 0.00 0.00 0.00 76 1005.6
20260831114731 20 286 3.2 9.7 0.00 0.00 0.00 75 1005.6
20260831114231 19 285 3.2 14.5 0.00 0.00 0.00 76 1005.6
20260831113731 19 257 4.8 14.5 0.00 0.00 0.00 75 1005.5
20260831113449 19 271 8.0 14.5 0.00 0.00 0.00 75 1005.5
20260831112730 19 289 4.8 11.3 0.00 0.00 0.00 76 1005.5
20260831112231 19 302 6.4 11.3 0.00 0.00 0.00 76 1005.4
20260831111731 19 282 4.8 11.3 0.00 0.00 0.00 77 1005.4
20260831111423 19 303 8.0 17.7 0.00 0.00 0.00 77 1005.4
20260831110455 19 283 6.4 14.5 0.00 0.00 0.00 76 1005.3
20260831105952 19 285 6.4 14.5 0.00 0.00 0.00 77 1005.4
20260831105230 18 309 4.8 11.3 0.00 0.00 0.00 78 1005.2
20260831104731 18 306 6.4 14.5 0.00 0.00 0.00 79 1005.1
20260831104232 18 292 6.4 16.1 0.00 0.00 0.00 79 1005.2
20260831103732 18 271 9.7 16.1 0.00 0.00 0.00 79 1005.3
20260831103231 18 313 9.7 19.3 0.00 0.00 0.00 80 1005.3
20260831102730 18 265 6.4 19.3 0.00 0.00 0.00 80 1005.3
20260831102224 18 290 11.3 17.7 0.00 0.00 0.00 80 1005.4
20260831101725 18 285 6.4 17.7 0.00 0.00 0.00 80 1005.3
20260831101224 18 281 6.4 16.1 0.00 0.00 0.00 80 1005.3
20260831100722 18 289 4.8 16.1 0.00 0.00 0.00 80 1005.2
20260831100223 18 289 6.4 17.7 0.00 0.00 0.00 80 1005.3
20260831095723 18 244 6.4 17.7 0.00 0.00 0.00 79 1005.3
20260831095222 18 302 6.4 14.5 0.00 0.00 0.00 79 1005.2
20260831094722 18 293 3.2 11.3 0.00 0.00 0.00 81 1005.2
20260831094222 18 275 6.4 19.3 0.00 0.00 0.00 82 1005.2
20260831093722 17 286 6.4 20.9 0.00 0.00 0.00 82 1005.2
20260831093221 17 275 8.0 20.9 0.00 0.00 0.00 82 1005.2
20260831092944 17 292 9.7 19.3 0.00 0.00 0.00 82 1005.1
20260831092222 17 279 6.4 17.7 0.00 0.00 0.00 83 1005.1
20260831091722 17 309 11.3 17.7 0.00 0.00 0.00 82 1005.0
20260831091221 17 281 4.8 20.9 0.00 0.00 0.00 83 1005.0
20260831090938 17 274 4.8 20.9 0.00 0.00 0.00 83 1005.0
20260831090222 17 271 9.7 22.5 0.00 0.00 0.00 84 1005.0
20260831085721 17 295 11.3 22.5 0.00 0.00 0.00 84 1004.9
20260831085220 17 265 12.9 24.1 0.00 0.00 0.00 84 1004.7
20260831084721 17 272 9.7 24.1 0.00 0.00 0.00 84 1004.8
20260831084221 17 274 6.4 19.3 0.00 0.00 0.00 85 1004.7
20260831083720 17 290 11.3 19.3 0.00 0.00 0.00 84 1004.7
20260831083222 17 279 9.7 22.5 0.00 0.00 0.00 84 1004.7
20260831082720 17 312 11.3 22.5 0.00 0.00 0.00 85 1004.6
20260831082221 17 299 8.0 20.9 0.00 0.00 0.00 85 1004.5
20260831081720 17 282 12.9 20.9 0.00 0.00 0.00 84 1004.5
20260831081220 17 261 11.3 17.7 0.00 0.00 0.00 85 1004.4
20260831080720 17 300 6.4 22.5 0.00 0.00 0.00 86 1004.4
20260831080219 17 316 11.3 22.5 0.00 0.00 0.00 87 1004.3
20260831075720 17 316 8.0 19.3 0.00 0.00 0.00 87 1004.3
20260831075221 17 290 8.0 24.1 0.00 0.00 0.00 87 1004.3
20260831074720 17 278 12.9 24.1 0.00 0.00 0.00 88 1004.2
20260831074444 17 313 12.9 19.3 0.00 0.00 0.00 88 1004.2
20260831073719 17 309 9.7 19.3 0.00 0.00 0.00 88 1004.2
20260831073219 17 271 6.4 19.3 0.00 0.00 0.00 88 1004.2
20260831072719 17 289 11.3 24.1 0.00 0.00 0.00 88 1004.1
20260831072219 17 250 9.7 24.1 0.00 0.00 0.00 89 1004.1
20260831071719 17 288 11.3 22.5 0.00 0.00 0.00 90 1004.1
20260831071218 16 292 9.7 16.1 0.00 0.00 0.00 90 1003.9
20260831070719 16 282 9.7 19.3 0.00 0.00 0.00 91 1003.9
20260831070442 16 296 9.7 19.3 0.00 0.00 0.00 91 1003.9
20260831065719 16 312 8.0 17.7 0.00 0.00 0.00 90 1003.8
20260831065438 16 340 8.0 24.1 0.00 0.00 0.00 90 1003.8
20260831064718 16 289 8.0 24.1 0.00 0.00 0.00 91 1003.8
20260831064219 16 299 11.3 20.9 0.00 0.00 0.00 91 1003.7
20260831063718 16 288 11.3 19.3 0.00 0.00 0.00 91 1003.6
20260831063218 16 327 11.3 20.9 0.00 0.00 0.00 91 1003.5
20260831062718 16 268 6.4 20.9 0.00 0.00 0.00 91 1003.5
20260831062217 17 309 8.0 20.9 0.00 0.00 0.00 90 1003.4
20260831061717 17 300 8.0 19.3 0.00 0.00 0.00 90 1003.3
20260831061218 17 262 8.0 20.9 0.00 0.00 0.00 90 1003.4
20260831060717 17 285 8.0 20.9 0.00 0.00 0.00 90 1003.3
20260831060440 17 269 8.0 16.1 0.00 0.00 0.00 90 1003.3
20260831055717 17 298 4.8 16.1 0.00 0.00 0.00 90 1003.2
20260831055217 17 300 6.4 16.1 0.00 0.00 0.00 90 1003.2
20260831054717 17 283 9.7 16.1 0.00 0.00 0.00 89 1003.1
20260831054217 17 275 4.8 20.9 0.00 0.00 0.00 89 1003.1
20260831053716 17 235 8.0 20.9 0.00 0.00 0.00 89 1003.0
20260831053217 17 300 4.8 16.1 0.00 0.00 0.00 89 1002.9
20260831052716 17 282 6.4 16.1 0.00 0.00 0.00 90 1002.8
20260831052216 17 276 6.4 17.7 0.00 0.00 0.00 90 1002.8
20260831051716 17 276 8.0 17.7 0.00 0.00 0.00 90 1002.9
20260831051229 17 278 4.8 17.7 0.00 0.00 0.00 90 1002.8
20260831050716 17 268 6.4 19.3 0.00 0.00 0.00 90 1002.8
20260831050448 17 271 9.7 19.3 0.00 0.00 0.00 91 1002.7
20260831045717 17 285 6.4 20.9 0.00 0.00 0.00 91 1002.7
20260831045217 17 255 8.0 20.9 0.00 0.00 0.00 91 1002.7
20260831044716 17 245 4.8 14.5 0.00 0.00 0.00 92 1002.6
20260831044216 17 281 6.4 20.9 0.00 0.00 0.00 92 1002.5
20260831043940 17 299 4.8 20.9 0.00 0.00 0.00 92 1002.5
20260831043216 17 272 9.7 19.3 0.00 0.00 0.00 93 1002.5
20260831042715 17 271 3.2 11.3 0.00 0.00 0.00 94 1002.5
20260831042215 17 282 6.4 11.3 0.00 0.00 0.00 94 1002.4
20260831041715 17 278 3.2 9.7 0.00 0.00 0.00 94 1002.3
20260831041438 17 269 3.2 6.4 0.00 0.00 0.00 94 1002.4
20260831040728 17 269 3.2 6.4 0.00 0.00 0.00 94 1002.4
20260831040215 17 234 1.6 8.0 0.00 0.00 0.00 94 1002.3
20260831035715 17 252 3.2 9.7 0.00 0.00 0.00 95 1002.3
20260831035215 17 274 4.8 9.7 0.00 0.00 0.00 95 1002.2
20260831034715 17 272 3.2 11.3 0.00 0.00 0.00 95 1002.3
20260831034440 17 265 4.8 11.3 0.00 0.00 0.00 95 1002.2
20260831033715 17 312 3.2 9.7 0.00 0.00 0.00 95 1002.2
20260831033436 17 274 1.6 8.0 0.00 0.00 0.00 95 1002.2
20260831032713 17 275 3.2 6.4 0.00 0.00 0.00 95 1002.1
20260831032214 17 313 1.6 8.0 0.00 0.00 0.00 95 1002.1
20260831031726 17 282 3.2 9.7 0.00 0.00 0.00 95 1002.1
20260831031214 17 309 4.8 8.0 0.00 0.00 0.00 95 1002.0
20260831030727 17 279 3.2 14.5 0.00 0.00 0.00 95 1002.1
20260831030438 17 275 6.4 14.5 0.00 0.00 0.00 95 1002.1
20260831025713 17 275 3.2 6.4 0.00 0.00 0.00 95 1002.1
20260831025440 17 290 1.6 4.8 0.00 0.00 0.00 95 1002.1
20260831024713 17 303 1.6 4.8 0.00 0.00 0.00 95 1002.1
20260831024218 17 282 0.0 6.4 0.00 0.00 0.00 95 1002.0
20260831023713 17 274 0.0 6.4 0.00 0.00 0.00 95 1002.1
20260831023213 17 250 1.6 4.8 0.00 0.00 0.00 95 1002.0
20260831022713 17 290 1.6 3.2 0.00 0.00 0.00 95 1002.0
20260831022213 17 237 1.6 3.2 0.00 0.00 0.00 95 1002.1
20260831021713 17 272 0.0 3.2 0.00 0.00 0.00 95 1002.1
20260831021213 17 272 0.0 3.2 0.00 0.00 0.00 95 1002.1
20260831020712 17 288 1.6 3.2 0.00 0.00 0.00 95 1002.0
20260831020212 17 288 0.0 4.8 0.00 0.00 0.00 95 1002.0
20260831015712 17 288 0.0 4.8 0.00 0.00 0.00 95 1001.9
20260831015214 17 288 0.0 4.8 0.00 0.00 0.00 95 1001.9
20260831014713 17 289 1.6 3.2 0.00 0.00 0.00 95 1001.9
20260831014213 17 289 0.0 3.2 0.00 0.00 0.00 95 1001.9
20260831013939 17 289 0.0 3.2 0.00 0.00 0.00 95 1001.8
20260831013213 17 289 0.0 3.2 0.00 0.00 0.00 95 1001.9
20260831012713 17 289 0.0 3.2 0.00 0.00 0.00 95 1001.8
20260831012212 17 289 0.0 3.2 0.00 0.00 0.00 95 1001.8
20260831011712 17 289 0.0 3.2 0.00 0.00 0.00 94 1001.8
20260831011441 17 289 0.0 1.6 0.00 0.00 0.00 94 1001.8
20260831010713 17 289 0.0 1.6 0.00 0.00 0.00 94 1001.9
20260831010212 17 289 0.0 1.6 0.00 0.00 0.00 94 1001.9
20260831005932 17 289 0.0 1.6 0.00 0.00 0.00 94 1001.9
20260831005211 17 289 1.6 3.2 0.00 0.00 0.00 95 1001.9
20260831004711 17 289 0.0 3.2 0.00 0.00 0.00 94 1001.9
20260831004211 17 203 0.0 0.0 0.00 0.00 0.00 94 1001.9
20260831003712 17 203 0.0 0.0 0.00 0.00 0.00 94 1002.0
20260831003434 17 203 0.0 0.0 0.00 0.00 0.00 94 1002.0
20260831002711 17 203 0.0 0.0 0.00 0.00 0.00 94 1002.1
20260831002211 17 203 0.0 0.0 0.00 0.00 0.00 94 1002.1
20260831001711 17 203 0.0 0.0 0.00 0.00 0.00 94 1002.1
20260831001211 17 203 0.0 1.6 0.00 0.00 0.00 94 1002.1
20260831000913 17 203 0.0 1.6 0.00 0.00 0.00 94 1002.1
20260830235711 17 203 0.0 0.0 0.00 0.00 0.00 94 1002.1
20260830235210 17 203 0.0 0.0 0.00 0.00 0.00 94 1002.0
20260830234710 17 203 0.0 0.0 0.00 0.00 0.00 94 1001.9
20260830234211 17 203 0.0 0.0 0.00 0.00 0.00 94 1002.0
20260830233710 17 203 0.0 1.6 0.00 0.00 0.00 94 1002.0
20260830233210 17 203 0.0 1.6 0.00 0.00 0.00 94 1002.2
20260830232935 17 203 0.0 1.6 0.00 0.00 0.00 94 1002.2
20260830232210 17 203 0.0 1.6 0.00 0.00 0.00 94 1002.2
20260830231710 17 203 0.0 1.6 0.00 0.00 0.00 94 1002.2
20260830231434 17 203 0.0 1.6 0.00 0.00 0.00 94 1002.1
20260830230709 17 203 0.0 0.0 0.00 0.00 0.00 94 1002.1
20260830230210 17 203 0.0 0.0 0.00 0.00 0.00 94 1002.1
20260830225710 17 203 0.0 0.0 0.00 0.00 0.00 93 1002.1
20260830225641 17 203 0.0 3.2 0.00 0.00 0.00 93 1002.2
20260830224213 17 175 1.6 6.4 0.00 0.00 0.00 93 1002.2
20260830223709 17 173 0.0 6.4 0.00 0.00 0.00 93 1002.2
20260830223208 17 180 0.0 3.2 0.00 0.00 0.00 93 1002.2
20260830222937 17 214 1.6 3.2 0.00 0.00 0.00 93 1002.2
20260830222209 17 217 0.0 3.2 0.00 0.00 0.00 93 1002.2
20260830221709 17 219 0.0 3.2 0.00 0.00 0.00 93 1002.2
20260830221209 17 216 0.0 3.2 0.00 0.00 0.00 93 1002.2
20260830220933 17 190 0.0 3.2 0.00 0.00 0.00 93 1002.2
20260830220208 17 135 0.0 3.2 0.00 0.00 0.00 93 1002.2
20260830215708 17 193 0.0 4.8 0.00 0.00 0.00 93 1002.3
20260830215208 17 173 0.0 4.8 0.00 0.00 0.00 93 1002.3
20260830214932 17 197 0.0 3.2 0.00 0.00 0.00 92 1002.5
20260830214207 17 197 0.0 3.2 0.00 0.00 0.00 93 1002.4
20260830213708 17 197 0.0 3.2 0.00 0.00 0.00 92 1002.5
20260830213207 17 197 1.6 3.2 0.00 0.00 0.00 92 1002.5
20260830212707 17 175 0.0 3.2 0.00 0.00 0.00 92 1002.6
20260830212208 17 231 0.0 1.6 0.00 0.00 0.00 92 1002.6
20260830211707 17 231 0.0 3.2 0.00 0.00 0.00 92 1002.6
20260830211207 17 235 1.6 4.8 0.00 0.00 0.00 92 1002.7
20260830210927 17 192 0.0 4.8 0.00 0.00 0.00 91 1002.7
20260830210432 17 209 0.0 6.4 0.00 0.00 0.00 91 1002.7
20260830205707 17 251 0.0 6.4 0.00 0.00 0.00 91 1002.7
20260830205207 17 209 0.0 6.4 0.00 0.00 0.00 91 1002.7
20260830204707 17 259 1.6 6.4 0.00 0.00 0.00 91 1002.8
20260830204206 17 204 3.2 4.8 0.00 0.00 0.00 91 1002.7
20260830203707 17 233 0.0 4.8 0.00 0.00 0.00 91 1002.8
20260830203207 17 233 3.2 4.8 0.00 0.00 0.00 91 1002.9
20260830202931 17 186 1.6 4.8 0.00 0.00 0.00 91 1002.9
20260830202206 17 235 0.0 9.7 0.00 0.00 0.00 91 1002.9
20260830201706 17 216 6.4 9.7 0.00 0.00 0.00 91 1002.9
20260830201207 17 224 4.8 9.7 0.00 0.00 0.00 91 1002.9
20260830200706 17 213 3.2 8.0 0.00 0.00 0.00 91 1002.9
20260830200427 17 197 3.2 6.4 0.00 0.00 0.00 91 1003.0
20260830195705 17 269 0.0 6.4 0.00 0.00 0.00 91 1003.0
20260830195207 17 182 1.6 8.0 0.00 0.00 0.00 91 1002.9
20260830194707 17 216 4.8 8.0 0.00 0.00 0.00 92 1003.0
20260830194207 17 183 3.2 6.4 0.00 0.00 0.00 92 1003.0
20260830193706 17 233 3.2 6.4 0.00 0.00 0.00 92 1003.1
20260830193205 17 200 1.6 6.4 0.00 0.00 0.00 92 1003.1
20260830192705 17 159 1.6 8.0 0.00 0.00 0.00 92 1003.1
20260830192206 17 172 0.0 8.0 0.00 0.00 0.00 92 1003.1
20260830191707 17 192 4.8 6.4 0.00 0.00 0.00 92 1003.1
20260830191204 17 169 1.6 6.4 0.00 0.00 0.00 92 1003.2
20260830190705 17 231 1.6 8.0 0.00 0.00 0.00 92 1003.2
20260830190204 17 213 1.6 8.0 0.00 0.00 0.00 92 1003.2
20260830185706 17 219 3.2 8.0 0.00 0.00 0.00 92 1003.1
20260830185204 17 204 4.8 8.0 0.00 0.00 0.00 92 1003.2
20260830184707 17 189 0.0 6.4 0.00 0.00 0.00 92 1003.2
20260830184206 17 137 1.6 9.7 0.00 0.00 0.00 92 1003.2
20260830183705 17 185 4.8 9.7 0.00 0.00 0.00 92 1003.2
20260830183205 17 190 0.0 6.4 0.00 0.00 0.00 92 1003.2
20260830182705 17 189 3.2 6.4 0.00 0.00 0.00 91 1003.3
20260830182434 17 213 1.6 6.4 0.00 0.00 0.00 91 1003.3
20260830181705 17 204 1.6 4.8 0.00 0.00 0.00 91 1003.3
20260830181434 17 193 1.6 8.0 0.00 0.00 0.00 91 1003.4
20260830180705 17 197 0.0 8.0 0.00 0.00 0.00 91 1003.4
20260830180205 17 196 3.2 9.7 0.00 0.00 0.00 91 1003.4
20260830175704 17 180 1.6 9.7 0.00 0.00 0.00 91 1003.4
20260830175428 17 268 3.2 8.0 0.00 0.00 0.00 91 1003.4
20260830174703 17 224 3.2 11.3 0.00 0.00 0.00 91 1003.4
20260830174204 17 224 0.0 11.3 0.00 0.00 0.00 91 1003.4
20260830173704 17 206 1.6 8.0 0.00 0.00 0.00 91 1003.5
20260830173205 17 185 3.2 14.5 0.00 0.00 0.00 91 1003.5
20260830172704 17 237 1.6 14.5 0.00 0.00 0.00 91 1003.5
20260830172204 17 209 1.6 6.4 0.00 0.00 0.00 91 1003.5
20260830171704 17 200 3.2 8.0 0.00 0.00 0.00 91 1003.5
20260830171204 17 193 3.2 9.7 0.00 0.00 0.00 91 1003.5
20260830170704 17 178 6.4 9.7 0.00 0.00 0.00 91 1003.5
20260830170647 17 192 0.0 8.0 0.00 0.00 0.00 92 1003.6